EDT,Max TemperatureF,Mean TemperatureF,Min TemperatureF,Max Dew PointF,MeanDew PointF,Min DewpointF,Max Humidity, Mean Humidity, Min Humidity, Max Sea Level PressureIn, Mean Sea Level PressureIn, Min Sea Level PressureIn, Max VisibilityMiles, Mean VisibilityMiles, Min VisibilityMiles, Max Wind SpeedMPH, Mean Wind SpeedMPH, Max Gust SpeedMPH,PrecipitationIn, CloudCover, Events, WindDirDegrees
2013-10-1,68,60,53,55,53,52,100,83,60,30.26,30.21,30.17,10,10,3,10,5,,0.00,2,,280
2013-10-2,69,62,55,57,55,50,94,80,60,30.29,30.25,30.22,10,10,1,15,11,18,0.00,1,Rain,293
2013-10-3,69,63,57,57,54,50,82,72,59,30.30,30.27,30.24,10,8,3,8,2,,0.00,0,,157
2013-10-4,73,65,57,61,58,55,100,82,61,30.30,30.27,30.23,10,10,5,10,7,,0.00,1,,276
2013-10-5,73,66,60,61,60,57,94,82,61,30.31,30.27,30.23,10,10,7,9,5,,0.00,1,,244
2013-10-6,71,66,60,61,59,57,100,82,60,30.23,30.14,30.04,10,10,10,13,9,21,0.00,3,,181
2013-10-7,60,52,42,61,51,39,100,90,67,30.15,30.01,29.91,10,7,0,23,14,32,1.20,5,Fog-Rain-Thunderstorm,260
2013-10-8,55,48,41,45,39,36,93,74,54,30.32,30.26,30.15,10,10,10,15,8,20,0.00,0,,64
2013-10-9,53,48,42,41,38,36,93,74,54,30.34,30.30,30.25,10,10,4,15,10,21,0.00,2,,80
2013-10-10,59,50,42,55,52,43,100,98,88,30.24,30.18,30.11,10,6,0,20,10,29,0.12,8,Fog-Rain,33
2013-10-11,60,56,51,55,53,52,100,97,82,30.12,30.09,30.07,10,8,0,15,10,23,0.00,8,Fog,354
2013-10-12,57,54,51,57,55,52,100,100,100,30.25,30.17,30.10,10,1,0,13,7,17,0.05,8,Fog-Rain,65
2013-10-13,55,53,51,55,54,52,100,100,100,30.37,30.32,30.24,2,0,0,9,7,16,0.08,8,Fog-Rain,70
2013-10-14,60,29,-2,57,29,-4,100,99,88,30.39,30.35,30.31,10,1,0,9,5,,0.07,8,Fog-Rain,90
2013-10-15,60,53,46,52,48,45,100,89,55,30.32,30.25,30.18,10,7,0,9,3,,0.00,3,Fog,112
2013-10-16,60,54,48,55,51,46,100,90,72,30.18,30.11,30.06,10,8,1,10,7,,0.00,4,,230
2013-10-17,57,50,44,57,54,43,100,99,93,30.06,29.98,29.89,10,4,0,22,10,32,0.07,8,Fog-Rain,243
2013-10-18,55,47,39,43,37,36,100,71,47,30.09,30.04,29.96,10,10,10,21,13,29,0.00,2,,265
2013-10-19,53,46,39,48,45,36,100,88,62,30.05,29.96,29.88,10,10,5,22,10,32,0.00,5,,230
2013-10-20,50,41,32,34,31,28,93,71,50,30.14,30.06,29.94,10,10,10,17,9,28,0.00,2,,270
2013-10-21,55,48,42,45,38,30,87,68,51,30.17,30.11,30.02,10,10,2,13,8,17,0.00,0,,212
2013-10-22,51,45,39,43,40,37,93,78,66,30.02,29.94,29.85,10,10,10,25,16,32,0.00,4,,267
2013-10-23,41,34,28,39,35,27,100,96,81,29.94,29.79,29.71,10,8,0,22,11,36,0.03,8,Fog-Rain,277
2013-10-24,33,30,26,28,26,21,100,89,65,30.11,30.02,29.93,10,9,0,20,13,28,0.00,7,Fog-Snow,277
2013-10-25,35,30,26,25,23,19,93,78,56,30.30,30.24,30.11,10,10,10,18,11,30,0.00,4,,296
2013-10-26,44,32,21,28,23,18,100,68,34,30.29,30.13,30.00,10,10,10,23,11,34,0.00,3,,260
2013-10-27,51,43,35,36,32,28,93,68,47,30.18,30.08,30.00,10,10,10,22,14,30,0.00,2,,271
2013-10-28,53,48,42,46,39,34,100,77,58,30.33,30.25,30.17,10,9,1,12,8,17,0.00,4,,265
2013-10-29,55,50,44,46,45,43,100,82,63,30.41,30.36,30.32,10,8,0,10,4,,0.00,4,Fog,233
2013-10-30,55,52,48,55,51,46,100,98,87,30.37,30.30,30.25,10,4,0,14,8,18,0.11,8,Fog-Rain,231
2013-10-31,57,55,53,55,53,52,100,90,82,30.28,30.12,29.85,10,10,2,21,10,30,0.02,5,Rain,201